TimeCST,TemperatureF,Dew PointF,Humidity,Sea Level PressureIn,VisibilityMPH,Wind Direction,Wind SpeedMPH,Gust SpeedMPH,PrecipitationIn,Events,Conditions,WindDirDegrees,DateUTC
12:52 AM,30.9,28.0,89,29.81,10.0,NW,10.4,-,N/A,,Clear,320,2013-02-04 06:52:00
1:22 AM,30.2,26.6,86,29.80,10.0,NNE,13.8,-,N/A,,Partly Cloudy,20,2013-02-04 07:22:00
1:36 AM,28.4,24.8,86,29.82,10.0,NNE,11.5,-,N/A,,Mostly Cloudy,20,2013-02-04 07:36:00
1:52 AM,26.1,21.9,84,29.87,10.0,North,13.8,-,N/A,,Mostly Cloudy,360,2013-02-04 07:52:00
2:12 AM,24.8,19.4,80,29.85,10.0,North,16.1,-,N/A,,Mostly Cloudy,10,2013-02-04 08:12:00
2:52 AM,21.9,18.0,85,29.92,10.0,North,12.7,-,N/A,,Overcast,10,2013-02-04 08:52:00
4:52 AM,21.2,19.4,93,29.93,10.0,North,13.8,-,N/A,,Overcast,360,2013-02-04 10:52:00
5:28 AM,21.2,17.6,86,29.95,10.0,North,15.0,-,N/A,,Overcast,360,2013-02-04 11:28:00
5:52 AM,21.0,17.1,85,30.00,10.0,North,12.7,-,N/A,,Overcast,360,2013-02-04 11:52:00
6:52 AM,19.0,15.1,85,30.02,10.0,North,13.8,-,N/A,,Overcast,360,2013-02-04 12:52:00
7:52 AM,19.0,14.0,81,30.04,10.0,North,10.4,-,N/A,,Overcast,350,2013-02-04 13:52:00
8:52 AM,19.0,14.0,81,30.06,10.0,North,8.1,-,N/A,,Overcast,10,2013-02-04 14:52:00
9:44 AM,19.4,12.2,74,30.04,10.0,North,11.5,-,N/A,,Overcast,10,2013-02-04 15:44:00
9:52 AM,19.0,12.9,77,30.08,10.0,North,9.2,-,N/A,,Overcast,360,2013-02-04 15:52:00
10:52 AM,19.9,12.9,74,30.08,10.0,Variable,4.6,-,N/A,,Overcast,0,2013-02-04 16:52:00
11:52 AM,21.0,12.9,71,30.08,10.0,NNW,4.6,-,N/A,,Overcast,330,2013-02-04 17:52:00
12:52 PM,23.0,14.0,68,30.06,10.0,Calm,Calm,-,N/A,,Overcast,0,2013-02-04 18:52:00
1:52 PM,23.0,15.1,72,30.04,10.0,NW,4.6,-,N/A,,Overcast,310,2013-02-04 19:52:00
2:52 PM,23.0,15.1,72,30.03,10.0,West,3.5,-,N/A,,Overcast,270,2013-02-04 20:52:00
3:52 PM,24.1,16.0,71,30.01,10.0,West,3.5,-,N/A,,Overcast,260,2013-02-04 21:52:00
4:52 PM,24.8,17.6,74,29.95,10.0,SW,5.8,-,N/A,,Mostly Cloudy,220,2013-02-04 22:52:00
5:10 PM,24.8,17.6,74,29.94,10.0,SSW,5.8,-,N/A,,Mostly Cloudy,210,2013-02-04 23:10:00
5:34 PM,24.8,17.6,74,29.93,10.0,SSW,6.9,-,N/A,,Overcast,200,2013-02-04 23:34:00
5:48 PM,24.8,17.6,74,29.92,10.0,South,8.1,-,N/A,,Overcast,190,2013-02-04 23:48:00
5:52 PM,25.0,17.1,72,29.97,10.0,South,8.1,-,N/A,,Overcast,190,2013-02-04 23:52:00
6:22 PM,24.8,17.6,74,29.92,10.0,SSW,9.2,-,N/A,,Overcast,210,2013-02-05 00:22:00
6:32 PM,24.8,17.6,74,29.92,10.0,South,8.1,-,N/A,,Overcast,190,2013-02-05 00:32:00
6:52 PM,25.0,18.0,75,29.96,10.0,SSW,9.2,-,N/A,,Overcast,200,2013-02-05 00:52:00
7:52 PM,25.0,18.0,75,29.95,10.0,South,8.1,-,N/A,,Scattered Clouds,190,2013-02-05 01:52:00
8:52 PM,25.0,19.0,78,29.92,10.0,South,13.8,-,N/A,,Overcast,190,2013-02-05 02:52:00
9:52 PM,25.0,19.0,78,29.92,10.0,South,11.5,-,N/A,,Overcast,190,2013-02-05 03:52:00
10:52 PM,26.1,19.9,78,29.90,10.0,South,9.2,-,N/A,,Overcast,180,2013-02-05 04:52:00
11:52 PM,26.1,21.0,81,29.88,10.0,South,9.2,-,N/A,,Mostly Cloudy,190,2013-02-05 05:52:00